Time,TemperatureF,DewpointF,PressureIn,WindDirection,WindDirectionDegrees,WindSpeedMPH,WindSpeedGustMPH,Humidity,HourlyPrecipIn,Conditions,Clouds,dailyrainin,SoftwareType,DateUTC
2013-06-24 00:00:00,55.1,54.3,29.83,SW,221,0.0,13.0,97,0.00,,,0.00,Wunderground v.1.15,2013-06-24 07:00:00,
2013-06-24 00:05:00,55.1,54.3,29.83,SW,221,1.0,13.0,97,0.00,,,0.00,Wunderground v.1.15,2013-06-24 07:05:00,
2013-06-24 00:15:00,55.2,54.6,29.83,SW,221,0.0,1.0,98,0.00,,,0.00,Wunderground v.1.15,2013-06-24 07:15:00,
2013-06-24 00:20:00,55.2,54.6,29.82,SW,221,0.0,0.0,98,0.00,,,0.00,Wunderground v.1.15,2013-06-24 07:20:00,
2013-06-24 00:25:00,55.2,54.6,29.83,SW,221,0.0,2.0,98,0.00,,,0.00,Wunderground v.1.15,2013-06-24 07:25:00,
2013-06-24 00:30:00,55.2,54.6,29.82,SW,221,0.0,0.0,98,0.00,,,0.00,Wunderground v.1.15,2013-06-24 07:30:00,
2013-06-24 00:35:00,55.2,54.6,29.82,SW,221,1.0,3.0,98,0.00,,,0.00,Wunderground v.1.15,2013-06-24 07:35:00,
2013-06-24 00:45:00,55.1,54.3,29.82,SW,221,1.0,1.0,97,0.00,,,0.00,Wunderground v.1.15,2013-06-24 07:45:00,
2013-06-24 00:55:00,55.1,54.5,29.81,SW,221,2.0,2.0,98,0.00,,,0.00,Wunderground v.1.15,2013-06-24 07:55:00,
2013-06-24 01:00:00,55.1,54.5,29.81,SW,221,3.0,5.0,98,0.00,,,0.00,Wunderground v.1.15,2013-06-24 08:00:00,
2013-06-24 01:05:00,55.1,54.5,29.82,SW,221,3.0,5.0,98,0.00,,,0.00,Wunderground v.1.15,2013-06-24 08:05:00,
2013-06-24 01:20:00,55.2,54.6,29.82,SW,221,1.0,1.0,98,0.00,,,0.00,Wunderground v.1.15,2013-06-24 08:20:00,
2013-06-24 01:25:00,55.2,54.6,29.82,SW,223,1.0,5.0,98,0.00,,,0.00,Wunderground v.1.15,2013-06-24 08:25:00,
2013-06-24 01:30:00,55.2,54.6,29.82,SW,223,1.0,1.0,98,0.00,,,0.00,Wunderground v.1.15,2013-06-24 08:30:00,
2013-06-24 01:35:00,55.2,54.6,29.82,SW,223,1.0,2.0,98,0.00,,,0.00,Wunderground v.1.15,2013-06-24 08:35:00,
2013-06-24 01:45:00,55.2,54.6,29.82,SW,224,3.0,5.0,98,0.00,,,0.00,Wunderground v.1.15,2013-06-24 08:45:00,
2013-06-24 01:50:00,55.3,54.7,29.82,SW,224,2.0,2.0,98,0.00,,,0.00,Wunderground v.1.15,2013-06-24 08:50:00,
2013-06-24 01:55:00,55.2,54.6,29.82,SW,224,1.0,5.0,98,0.00,,,0.00,Wunderground v.1.15,2013-06-24 08:55:00,
2013-06-24 02:00:00,55.2,54.6,29.82,SW,224,1.0,1.0,98,0.00,,,0.00,Wunderground v.1.15,2013-06-24 09:00:00,
2013-06-24 02:10:00,55.2,54.6,29.81,SW,224,1.0,1.0,98,0.00,,,0.00,Wunderground v.1.15,2013-06-24 09:10:00,
2013-06-24 02:15:00,55.2,54.6,29.81,SW,224,1.0,5.0,98,0.00,,,0.00,Wunderground v.1.15,2013-06-24 09:15:00,
2013-06-24 02:20:00,55.2,54.6,29.80,SW,224,1.0,5.0,98,0.00,,,0.00,Wunderground v.1.15,2013-06-24 09:20:00,
2013-06-24 02:25:00,55.2,54.6,29.80,SW,224,0.0,5.0,98,0.00,,,0.00,Wunderground v.1.15,2013-06-24 09:25:00,
2013-06-24 02:35:00,55.3,54.7,29.80,SW,225,1.0,5.0,98,0.00,,,0.00,Wunderground v.1.15,2013-06-24 09:35:00,
2013-06-24 02:55:00,55.4,54.8,29.80,SW,224,0.0,5.0,98,0.00,,,0.00,Wunderground v.1.15,2013-06-24 09:55:00,
2013-06-24 03:00:00,55.4,54.8,29.80,SW,224,1.0,1.0,98,0.00,,,0.00,Wunderground v.1.15,2013-06-24 10:00:00,
2013-06-24 03:05:00,55.4,54.8,29.80,SW,224,1.0,3.0,98,0.00,,,0.00,Wunderground v.1.15,2013-06-24 10:05:00,
2013-06-24 03:15:00,55.3,54.7,29.80,SW,222,3.0,5.0,98,0.00,,,0.00,Wunderground v.1.15,2013-06-24 10:15:00,
2013-06-24 03:20:00,55.3,54.7,29.80,SW,222,2.0,5.0,98,0.00,,,0.00,Wunderground v.1.15,2013-06-24 10:20:00,
2013-06-24 03:25:00,55.3,54.7,29.80,SW,222,1.0,5.0,98,0.00,,,0.00,Wunderground v.1.15,2013-06-24 10:25:00,
2013-06-24 03:35:00,55.2,54.6,29.80,SW,223,2.0,5.0,98,0.00,,,0.00,Wunderground v.1.15,2013-06-24 10:35:00,
2013-06-24 03:40:00,55.3,54.7,29.80,SW,224,2.0,2.0,98,0.00,,,0.00,Wunderground v.1.15,2013-06-24 10:40:00,
2013-06-24 03:45:00,55.2,54.6,29.80,SW,224,1.0,5.0,98,0.00,,,0.00,Wunderground v.1.15,2013-06-24 10:45:00,
2013-06-24 03:50:00,55.1,54.5,29.80,SW,217,2.0,6.0,98,0.00,,,0.00,Wunderground v.1.15,2013-06-24 10:50:00,
2013-06-24 03:55:00,55.0,54.4,29.80,SW,217,4.0,6.0,98,0.00,,,0.00,Wunderground v.1.15,2013-06-24 10:55:00,
2013-06-24 04:00:00,55.0,54.4,29.80,SW,217,4.0,4.0,98,0.00,,,0.00,Wunderground v.1.15,2013-06-24 11:00:00,
2013-06-24 04:10:00,55.0,54.4,29.80,SW,217,1.0,5.0,98,0.00,,,0.00,Wunderground v.1.15,2013-06-24 11:10:00,
2013-06-24 04:15:00,55.0,54.4,29.80,SW,217,2.0,5.0,98,0.00,,,0.00,Wunderground v.1.15,2013-06-24 11:15:00,
2013-06-24 04:20:00,55.0,54.4,29.81,SW,218,2.0,5.0,98,0.00,,,0.00,Wunderground v.1.15,2013-06-24 11:20:00,
2013-06-24 04:25:00,54.9,54.3,29.81,SW,218,2.0,5.0,98,0.00,,,0.00,Wunderground v.1.15,2013-06-24 11:25:00,
2013-06-24 04:30:00,54.9,54.3,29.81,SW,219,3.0,3.0,98,0.00,,,0.00,Wunderground v.1.15,2013-06-24 11:30:00,
2013-06-24 04:40:00,54.7,54.1,29.81,SW,219,2.0,2.0,98,0.00,,,0.00,Wunderground v.1.15,2013-06-24 11:40:00,
2013-06-24 04:50:00,54.6,54.0,29.81,SW,219,1.0,1.0,98,0.00,,,0.00,Wunderground v.1.15,2013-06-24 11:50:00,
2013-06-24 04:55:00,54.6,54.0,29.81,SW,219,1.0,5.0,98,0.00,,,0.00,Wunderground v.1.15,2013-06-24 11:55:00,
2013-06-24 05:05:00,54.6,54.0,29.81,SW,219,1.0,5.0,98,0.00,,,0.00,Wunderground v.1.15,2013-06-24 12:05:00,
2013-06-24 05:10:00,54.6,54.0,29.81,SW,219,1.0,1.0,98,0.00,,,0.00,Wunderground v.1.15,2013-06-24 12:10:00,
2013-06-24 05:15:00,54.6,54.0,29.81,SW,219,0.0,5.0,98,0.00,,,0.00,Wunderground v.1.15,2013-06-24 12:15:00,
2013-06-24 05:20:00,54.6,54.0,29.81,SW,219,0.0,5.0,98,0.00,,,0.00,Wunderground v.1.15,2013-06-24 12:20:00,
2013-06-24 05:30:00,54.6,54.0,29.81,SW,219,1.0,5.0,98,0.00,,,0.00,Wunderground v.1.15,2013-06-24 12:30:00,
2013-06-24 05:35:00,54.6,54.0,29.81,SW,219,1.0,5.0,98,0.00,,,0.00,Wunderground v.1.15,2013-06-24 12:35:00,
2013-06-24 05:45:00,54.6,54.0,29.81,SW,221,0.0,5.0,98,0.00,,,0.00,Wunderground v.1.15,2013-06-24 12:45:00,
2013-06-24 05:55:00,54.7,54.1,29.82,SW,217,1.0,5.0,98,0.00,,,0.00,Wunderground v.1.15,2013-06-24 12:55:00,
2013-06-24 06:00:00,54.7,54.1,29.82,WSW,242,1.0,5.0,98,0.00,,,0.00,Wunderground v.1.15,2013-06-24 13:00:00,
2013-06-24 06:05:00,54.8,54.2,29.82,WSW,242,1.0,5.0,98,0.00,,,0.00,Wunderground v.1.15,2013-06-24 13:05:00,
2013-06-24 06:10:00,54.8,54.2,29.82,WSW,242,2.0,5.0,98,0.00,,,0.00,Wunderground v.1.15,2013-06-24 13:10:00,
2013-06-24 06:15:00,54.8,54.2,29.82,WSW,242,2.0,5.0,98,0.00,,,0.00,Wunderground v.1.15,2013-06-24 13:15:00,
2013-06-24 06:25:00,54.9,54.6,29.82,WSW,242,1.0,5.0,99,0.00,,,0.00,Wunderground v.1.15,2013-06-24 13:25:00,
2013-06-24 06:30:00,54.9,54.6,29.82,WSW,242,1.0,1.0,99,0.00,,,0.00,Wunderground v.1.15,2013-06-24 13:30:00,
2013-06-24 06:35:00,55.0,54.7,29.82,WSW,242,1.0,5.0,99,0.00,,,0.00,Wunderground v.1.15,2013-06-24 13:35:00,
2013-06-24 06:40:00,55.0,54.7,29.82,WSW,242,1.0,5.0,99,0.00,,,0.00,Wunderground v.1.15,2013-06-24 13:40:00,
2013-06-24 06:50:00,55.0,54.7,29.83,WSW,247,2.0,2.0,99,0.00,,,0.00,Wunderground v.1.15,2013-06-24 13:50:00,
2013-06-24 06:55:00,55.1,54.8,29.83,WSW,247,2.0,5.0,99,0.00,,,0.00,Wunderground v.1.15,2013-06-24 13:55:00,
2013-06-24 07:05:00,55.1,54.8,29.83,WSW,247,1.0,5.0,99,0.00,,,0.00,Wunderground v.1.15,2013-06-24 14:05:00,
2013-06-24 07:10:00,55.2,54.6,29.83,WSW,247,1.0,1.0,98,0.00,,,0.00,Wunderground v.1.15,2013-06-24 14:10:00,
2013-06-24 07:20:00,55.2,54.6,29.83,WSW,247,0.0,5.0,98,0.00,,,0.00,Wunderground v.1.15,2013-06-24 14:20:00,
2013-06-24 07:25:00,55.3,54.7,29.83,WSW,247,0.0,5.0,98,0.00,,,0.00,Wunderground v.1.15,2013-06-24 14:25:00,
2013-06-24 07:45:00,55.8,55.5,29.83,WSW,247,1.0,5.0,99,0.00,,,0.00,Wunderground v.1.15,2013-06-24 14:45:00,
2013-06-24 07:50:00,55.9,55.3,29.83,WSW,241,1.0,1.0,98,0.00,,,0.00,Wunderground v.1.15,2013-06-24 14:50:00,
2013-06-24 07:55:00,56.0,55.4,29.83,WSW,241,1.0,5.0,98,0.00,,,0.00,Wunderground v.1.15,2013-06-24 14:55:00,
2013-06-24 08:05:00,56.0,55.4,29.83,WSW,240,0.0,5.0,98,0.00,,,0.00,Wunderground v.1.15,2013-06-24 15:05:00,
2013-06-24 08:15:00,56.1,55.5,29.84,WSW,240,2.0,5.0,98,0.00,,,0.00,Wunderground v.1.15,2013-06-24 15:15:00,
2013-06-24 08:20:00,56.3,55.7,29.84,SSW,210,0.0,5.0,98,0.00,,,0.00,Wunderground v.1.15,2013-06-24 15:20:00,
2013-06-24 08:30:00,56.5,55.9,29.84,SSW,210,1.0,1.0,98,0.00,,,0.00,Wunderground v.1.15,2013-06-24 15:30:00,
2013-06-24 08:35:00,56.5,55.7,29.84,SSW,210,0.0,5.0,97,0.00,,,0.00,Wunderground v.1.15,2013-06-24 15:35:00,
2013-06-24 08:40:00,56.7,55.9,29.84,SW,214,0.0,5.0,97,0.00,,,0.00,Wunderground v.1.15,2013-06-24 15:40:00,
2013-06-24 08:45:00,56.9,56.1,29.84,SW,214,0.0,5.0,97,0.00,,,0.00,Wunderground v.1.15,2013-06-24 15:45:00,
2013-06-24 08:50:00,57.0,56.2,29.84,SW,214,1.0,5.0,97,0.00,,,0.00,Wunderground v.1.15,2013-06-24 15:50:00,
2013-06-24 08:55:00,57.0,55.6,29.84,SW,220,2.0,5.0,95,0.00,,,0.01,Wunderground v.1.15,2013-06-24 15:55:00,
2013-06-24 09:10:00,57.3,55.9,29.84,SW,220,0.0,5.0,95,0.00,,,0.01,Wunderground v.1.15,2013-06-24 16:10:00,
2013-06-24 09:20:00,57.3,55.9,29.85,WSW,242,2.0,5.0,95,0.00,,,0.01,Wunderground v.1.15,2013-06-24 16:20:00,
2013-06-24 09:30:00,57.3,55.9,29.86,WSW,254,2.0,7.0,95,0.00,,,0.01,Wunderground v.1.15,2013-06-24 16:30:00,
2013-06-24 09:40:00,57.3,55.6,29.87,South,189,4.0,4.0,94,0.00,,,0.01,Wunderground v.1.15,2013-06-24 16:40:00,
2013-06-24 09:45:00,57.2,55.8,29.87,SSW,196,3.0,5.0,95,0.00,,,0.01,Wunderground v.1.15,2013-06-24 16:45:00,
2013-06-24 09:50:00,57.2,55.8,29.87,SSW,197,3.0,5.0,95,0.00,,,0.01,Wunderground v.1.15,2013-06-24 16:50:00,
2013-06-24 09:55:00,57.2,56.1,29.87,South,178,3.0,5.0,96,0.00,,,0.01,Wunderground v.1.15,2013-06-24 16:55:00,
2013-06-24 10:05:00,57.4,56.3,29.87,SW,235,3.0,5.0,96,0.00,,,0.01,Wunderground v.1.15,2013-06-24 17:05:00,
2013-06-24 10:10:00,57.5,56.1,29.87,SW,230,3.0,5.0,95,0.00,,,0.01,Wunderground v.1.15,2013-06-24 17:10:00,
2013-06-24 10:15:00,57.6,56.2,29.87,WSW,251,3.0,5.0,95,0.00,,,0.01,Wunderground v.1.15,2013-06-24 17:15:00,
2013-06-24 10:20:00,57.7,56.3,29.87,WSW,248,3.0,5.0,95,0.00,,,0.01,Wunderground v.1.15,2013-06-24 17:20:00,
2013-06-24 10:25:00,57.7,56.3,29.87,WSW,248,4.0,5.0,95,0.00,,,0.01,Wunderground v.1.15,2013-06-24 17:25:00,
2013-06-24 10:30:00,57.6,56.2,29.88,WSW,249,3.0,3.0,95,0.00,,,0.01,Wunderground v.1.15,2013-06-24 17:30:00,
2013-06-24 10:40:00,57.7,55.7,29.88,SW,217,3.0,3.0,93,0.00,,,0.01,Wunderground v.1.15,2013-06-24 17:40:00,
2013-06-24 10:50:00,58.0,56.0,29.88,SW,214,3.0,5.0,93,0.00,,,0.01,Wunderground v.1.15,2013-06-24 17:50:00,
2013-06-24 10:55:00,58.0,56.3,29.88,SW,215,3.0,5.0,94,0.00,,,0.01,Wunderground v.1.15,2013-06-24 17:55:00,
2013-06-24 11:05:00,57.9,56.2,29.88,SW,216,2.0,4.0,94,0.00,,,0.01,Wunderground v.1.15,2013-06-24 18:05:00,
2013-06-24 11:15:00,58.0,56.0,29.88,SW,216,1.0,5.0,93,0.00,,,0.01,Wunderground v.1.15,2013-06-24 18:15:00,
2013-06-24 11:20:00,58.1,56.1,29.88,SW,216,2.0,5.0,93,0.00,,,0.01,Wunderground v.1.15,2013-06-24 18:20:00,
2013-06-24 11:30:00,58.1,56.1,29.88,SW,214,2.0,2.0,93,0.00,,,0.01,Wunderground v.1.15,2013-06-24 18:30:00,
2013-06-24 11:35:00,58.3,56.3,29.88,SW,214,1.0,5.0,93,0.00,,,0.01,Wunderground v.1.15,2013-06-24 18:35:00,
2013-06-24 11:40:00,58.2,55.9,29.88,SW,214,1.0,5.0,92,0.00,,,0.01,Wunderground v.1.15,2013-06-24 18:40:00,
2013-06-24 11:50:00,58.3,56.0,29.88,SW,229,3.0,3.0,92,0.00,,,0.02,Wunderground v.1.15,2013-06-24 18:50:00,
2013-06-24 11:55:00,58.4,56.7,29.88,SW,229,2.0,5.0,94,0.00,,,0.02,Wunderground v.1.15,2013-06-24 18:55:00,
2013-06-24 12:00:00,58.6,56.6,29.88,SW,225,2.0,2.0,93,0.00,,,0.02,Wunderground v.1.15,2013-06-24 19:00:00,
2013-06-24 12:05:00,58.9,56.6,29.89,SW,216,3.0,7.0,92,0.00,,,0.02,Wunderground v.1.15,2013-06-24 19:05:00,
2013-06-24 12:15:00,59.2,56.6,29.88,SSW,210,4.0,5.0,91,0.00,,,0.02,Wunderground v.1.15,2013-06-24 19:15:00,
2013-06-24 12:20:00,59.2,56.3,29.88,SW,219,3.0,5.0,90,0.00,,,0.02,Wunderground v.1.15,2013-06-24 19:20:00,
2013-06-24 12:30:00,59.6,56.4,29.88,SSW,211,4.0,4.0,89,0.00,,,0.02,Wunderground v.1.15,2013-06-24 19:30:00,
2013-06-24 12:50:00,60.2,56.9,29.88,SSE,160,1.0,1.0,89,0.00,,,0.02,Wunderground v.1.15,2013-06-24 19:50:00,
2013-06-24 12:55:00,60.2,56.9,29.88,SSE,161,1.0,2.0,89,0.00,,,0.02,Wunderground v.1.15,2013-06-24 19:55:00,
2013-06-24 13:00:00,60.1,57.2,29.88,SSE,157,1.0,1.0,90,0.00,,,0.03,Wunderground v.1.15,2013-06-24 20:00:00,
2013-06-24 13:10:00,60.1,57.5,29.88,SSE,163,1.0,1.0,91,0.00,,,0.03,Wunderground v.1.15,2013-06-24 20:10:00,
2013-06-24 13:20:00,59.8,57.5,29.89,South,172,1.0,1.0,92,0.17,,,0.06,Wunderground v.1.15,2013-06-24 20:20:00,
2013-06-24 13:25:00,59.8,57.8,29.89,South,172,1.0,5.0,93,0.12,,,0.07,Wunderground v.1.15,2013-06-24 20:25:00,
2013-06-24 13:30:00,59.8,57.8,29.89,South,174,1.0,6.0,93,0.12,,,0.08,Wunderground v.1.15,2013-06-24 20:30:00,
2013-06-24 13:45:00,59.9,57.9,29.89,SW,220,4.0,7.0,93,0.04,,,0.08,Wunderground v.1.15,2013-06-24 20:45:00,
2013-06-24 13:50:00,60.2,58.2,29.89,WSW,250,3.0,3.0,93,0.00,,,0.08,Wunderground v.1.15,2013-06-24 20:50:00,
2013-06-24 14:05:00,60.7,58.4,29.88,SW,219,1.0,5.0,92,0.00,,,0.08,Wunderground v.1.15,2013-06-24 21:05:00,
2013-06-24 14:10:00,61.0,58.0,29.89,SW,219,2.0,5.0,90,0.00,,,0.08,Wunderground v.1.15,2013-06-24 21:10:00,
2013-06-24 14:15:00,60.9,57.6,29.88,SW,229,2.0,5.0,89,0.00,,,0.08,Wunderground v.1.15,2013-06-24 21:15:00,
2013-06-24 14:20:00,61.0,57.7,29.89,SW,227,2.0,5.0,89,0.00,,,0.08,Wunderground v.1.15,2013-06-24 21:20:00,
2013-06-24 14:30:00,60.8,58.2,29.89,SW,226,3.0,3.0,91,0.00,,,0.09,Wunderground v.1.15,2013-06-24 21:30:00,
2013-06-24 14:35:00,60.8,58.2,29.88,SW,227,1.0,5.0,91,0.00,,,0.09,Wunderground v.1.15,2013-06-24 21:35:00,
2013-06-24 14:40:00,60.9,59.2,29.88,SW,225,2.0,2.0,94,0.00,,,0.09,Wunderground v.1.15,2013-06-24 21:40:00,
2013-06-24 14:45:00,61.0,58.4,29.89,SW,218,3.0,3.0,91,0.00,,,0.09,Wunderground v.1.15,2013-06-24 21:45:00,
2013-06-24 14:50:00,61.1,58.5,29.89,SW,225,2.0,6.0,91,0.00,,,0.09,Wunderground v.1.15,2013-06-24 21:50:00,
2013-06-24 14:55:00,60.9,58.3,29.89,SW,223,2.0,6.0,91,0.00,,,0.09,Wunderground v.1.15,2013-06-24 21:55:00,
2013-06-24 15:05:00,60.8,57.8,29.89,SW,227,0.0,5.0,90,0.00,,,0.09,Wunderground v.1.15,2013-06-24 22:05:00,
2013-06-24 15:10:00,60.7,58.1,29.89,SW,226,1.0,1.0,91,0.00,,,0.09,Wunderground v.1.15,2013-06-24 22:10:00,
2013-06-24 15:15:00,60.7,58.1,29.88,SW,231,0.0,5.0,91,0.00,,,0.09,Wunderground v.1.15,2013-06-24 22:15:00,
2013-06-24 15:20:00,60.5,57.9,29.88,SW,231,0.0,5.0,91,0.00,,,0.09,Wunderground v.1.15,2013-06-24 22:20:00,
2013-06-24 15:25:00,60.5,58.2,29.89,SW,230,1.0,5.0,92,0.00,,,0.09,Wunderground v.1.15,2013-06-24 22:25:00,
2013-06-24 15:35:00,60.3,57.7,29.89,SW,230,1.0,3.0,91,0.00,,,0.10,Wunderground v.1.15,2013-06-24 22:35:00,
2013-06-24 15:40:00,60.0,57.7,29.89,SW,229,1.0,5.0,92,0.00,,,0.10,Wunderground v.1.15,2013-06-24 22:40:00,
2013-06-24 15:45:00,59.8,57.8,29.89,SW,226,2.0,5.0,93,0.00,,,0.10,Wunderground v.1.15,2013-06-24 22:45:00,
2013-06-24 15:50:00,59.7,58.0,29.89,SW,227,3.0,5.0,94,0.00,,,0.10,Wunderground v.1.15,2013-06-24 22:50:00,
2013-06-24 15:55:00,59.7,58.0,29.89,SW,228,2.0,5.0,94,0.00,,,0.10,Wunderground v.1.15,2013-06-24 22:55:00,
2013-06-24 16:05:00,60.0,58.0,29.89,SW,229,2.0,5.0,93,0.00,,,0.10,Wunderground v.1.15,2013-06-24 23:05:00,
2013-06-24 16:15:00,59.8,56.9,29.88,SW,224,2.0,5.0,90,0.00,,,0.10,Wunderground v.1.15,2013-06-24 23:15:00,
2013-06-24 16:25:00,60.0,57.7,29.88,SW,225,0.0,5.0,92,0.00,,,0.10,Wunderground v.1.15,2013-06-24 23:25:00,
2013-06-24 16:30:00,60.2,57.9,29.88,SW,227,0.0,5.0,92,0.00,,,0.10,Wunderground v.1.15,2013-06-24 23:30:00,
2013-06-24 16:35:00,60.1,57.5,29.88,SW,226,1.0,5.0,91,0.00,,,0.10,Wunderground v.1.15,2013-06-24 23:35:00,
2013-06-24 16:40:00,59.8,57.2,29.88,SSW,211,4.0,5.0,91,0.00,,,0.10,Wunderground v.1.15,2013-06-24 23:40:00,
2013-06-24 16:45:00,59.7,57.7,29.88,SSW,212,4.0,5.0,93,0.00,,,0.10,Wunderground v.1.15,2013-06-24 23:45:00,
2013-06-24 17:00:00,59.0,57.3,29.89,SW,225,4.0,4.0,94,0.00,,,0.10,Wunderground v.1.15,2013-06-25 00:00:00,
2013-06-24 17:05:00,59.0,57.6,29.89,SW,225,3.0,5.0,95,0.00,,,0.10,Wunderground v.1.15,2013-06-25 00:05:00,
2013-06-24 17:10:00,59.0,57.6,29.88,SW,227,2.0,5.0,95,0.00,,,0.10,Wunderground v.1.15,2013-06-25 00:10:00,
2013-06-24 17:20:00,58.9,57.5,29.88,WSW,243,4.0,4.0,95,0.00,,,0.10,Wunderground v.1.15,2013-06-25 00:20:00,
2013-06-24 17:25:00,59.0,57.3,29.89,WSW,246,4.0,5.0,94,0.00,,,0.10,Wunderground v.1.15,2013-06-25 00:25:00,
2013-06-24 17:30:00,59.0,57.3,29.89,WSW,249,4.0,5.0,94,0.00,,,0.10,Wunderground v.1.15,2013-06-25 00:30:00,
2013-06-24 17:35:00,59.1,57.4,29.88,WSW,245,3.0,5.0,94,0.00,,,0.10,Wunderground v.1.15,2013-06-25 00:35:00,
2013-06-24 17:40:00,59.0,57.3,29.89,WSW,252,4.0,5.0,94,0.00,,,0.10,Wunderground v.1.15,2013-06-25 00:40:00,
2013-06-24 17:55:00,58.9,57.5,29.88,WSW,257,2.0,5.0,95,0.00,,,0.10,Wunderground v.1.15,2013-06-25 00:55:00,
2013-06-24 18:00:00,58.7,57.0,29.88,West,263,3.0,5.0,94,0.00,,,0.11,Wunderground v.1.15,2013-06-25 01:00:00,
2013-06-24 18:10:00,58.2,56.8,29.88,West,270,3.0,3.0,95,0.00,,,0.11,Wunderground v.1.15,2013-06-25 01:10:00,
2013-06-24 18:15:00,58.1,56.7,29.88,West,270,3.0,5.0,95,0.00,,,0.11,Wunderground v.1.15,2013-06-25 01:15:00,
2013-06-24 18:20:00,58.1,56.7,29.88,West,270,3.0,3.0,95,0.00,,,0.11,Wunderground v.1.15,2013-06-25 01:20:00,
2013-06-24 18:35:00,58.2,57.1,29.88,West,270,0.0,2.0,96,0.00,,,0.11,Wunderground v.1.15,2013-06-25 01:35:00,
2013-06-24 18:40:00,58.2,57.1,29.88,West,270,2.0,5.0,96,0.00,,,0.11,Wunderground v.1.15,2013-06-25 01:40:00,
2013-06-24 18:45:00,58.3,57.2,29.88,West,270,2.0,5.0,96,0.00,,,0.11,Wunderground v.1.15,2013-06-25 01:45:00,
2013-06-24 18:50:00,58.5,57.4,29.87,West,270,1.0,5.0,96,0.00,,,0.11,Wunderground v.1.15,2013-06-25 01:50:00,
2013-06-24 19:00:00,58.6,57.5,29.88,West,267,2.0,2.0,96,0.00,,,0.11,Wunderground v.1.15,2013-06-25 02:00:00,
2013-06-24 19:05:00,58.6,57.5,29.88,West,267,1.0,5.0,96,0.00,,,0.11,Wunderground v.1.15,2013-06-25 02:05:00,
2013-06-24 19:10:00,58.6,57.5,29.88,West,267,0.0,5.0,96,0.00,,,0.11,Wunderground v.1.15,2013-06-25 02:10:00,
2013-06-24 19:15:00,58.6,57.5,29.88,West,267,0.0,5.0,96,0.00,,,0.11,Wunderground v.1.15,2013-06-25 02:15:00,
2013-06-24 19:25:00,58.6,57.5,29.88,West,267,0.0,5.0,96,0.00,,,0.11,Wunderground v.1.15,2013-06-25 02:25:00,
2013-06-24 19:30:00,58.5,57.1,29.88,West,267,0.0,5.0,95,0.00,,,0.11,Wunderground v.1.15,2013-06-25 02:30:00,
2013-06-24 19:35:00,58.5,57.4,29.88,West,267,0.0,5.0,96,0.00,,,0.11,Wunderground v.1.15,2013-06-25 02:35:00,
2013-06-24 19:40:00,58.4,57.3,29.88,West,267,0.0,5.0,96,0.00,,,0.12,Wunderground v.1.15,2013-06-25 02:40:00,
2013-06-24 19:45:00,58.3,57.2,29.88,West,267,1.0,5.0,96,0.00,,,0.12,Wunderground v.1.15,2013-06-25 02:45:00,
2013-06-24 19:50:00,58.2,57.1,29.89,WNW,295,1.0,1.0,96,0.06,,,0.13,Wunderground v.1.15,2013-06-25 02:50:00,
2013-06-24 19:55:00,58.0,56.9,29.88,WNW,295,1.0,2.0,96,0.07,,,0.14,Wunderground v.1.15,2013-06-25 02:55:00,
2013-06-24 20:05:00,57.8,57.0,29.88,WNW,295,1.0,5.0,97,0.08,,,0.15,Wunderground v.1.15,2013-06-25 03:05:00,
2013-06-24 20:10:00,57.8,57.0,29.88,WNW,295,0.0,5.0,97,0.07,,,0.15,Wunderground v.1.15,2013-06-25 03:10:00,
2013-06-24 20:20:00,57.7,56.9,29.88,WNW,292,0.0,5.0,97,0.04,,,0.16,Wunderground v.1.15,2013-06-25 03:20:00,
2013-06-24 20:30:00,57.6,56.8,29.88,NW,311,0.0,5.0,97,0.04,,,0.16,Wunderground v.1.15,2013-06-25 03:30:00,
2013-06-24 20:35:00,57.5,56.7,29.88,NW,304,0.0,5.0,97,0.00,,,0.17,Wunderground v.1.15,2013-06-25 03:35:00,
2013-06-24 20:40:00,57.5,56.7,29.88,NW,304,0.0,5.0,97,0.00,,,0.17,Wunderground v.1.15,2013-06-25 03:40:00,
2013-06-24 20:45:00,57.5,56.7,29.88,NW,304,0.0,5.0,97,0.00,,,0.17,Wunderground v.1.15,2013-06-25 03:45:00,
2013-06-24 20:55:00,57.5,56.7,29.88,NW,304,0.0,5.0,97,0.09,,,0.19,Wunderground v.1.15,2013-06-25 03:55:00,
2013-06-24 21:00:00,57.6,56.8,29.88,NW,304,0.0,5.0,97,0.08,,,0.19,Wunderground v.1.15,2013-06-25 04:00:00,
2013-06-24 21:05:00,57.6,56.8,29.88,NW,304,0.0,5.0,97,0.07,,,0.20,Wunderground v.1.15,2013-06-25 04:05:00,
2013-06-24 21:10:00,57.7,57.1,29.88,NW,304,0.0,5.0,98,0.06,,,0.20,Wunderground v.1.15,2013-06-25 04:10:00,
2013-06-24 21:15:00,57.7,57.1,29.88,NW,304,0.0,5.0,98,0.05,,,0.21,Wunderground v.1.15,2013-06-25 04:15:00,
2013-06-24 21:20:00,57.7,57.1,29.88,NW,304,0.0,5.0,98,0.05,,,0.21,Wunderground v.1.15,2013-06-25 04:20:00,
2013-06-24 21:25:00,57.7,57.1,29.88,NW,304,0.0,5.0,98,0.05,,,0.21,Wunderground v.1.15,2013-06-25 04:25:00,
2013-06-24 21:30:00,57.7,57.1,29.88,NW,304,0.0,5.0,98,0.04,,,0.21,Wunderground v.1.15,2013-06-25 04:30:00,
2013-06-24 21:35:00,57.8,57.2,29.89,NW,304,0.0,5.0,98,0.00,,,0.21,Wunderground v.1.15,2013-06-25 04:35:00,
2013-06-24 21:40:00,57.8,57.2,29.89,NW,304,0.0,5.0,98,0.00,,,0.22,Wunderground v.1.15,2013-06-25 04:40:00,
2013-06-24 21:45:00,57.8,57.2,29.89,NW,304,0.0,5.0,98,0.00,,,0.22,Wunderground v.1.15,2013-06-25 04:45:00,
2013-06-24 21:50:00,57.9,57.3,29.89,NW,304,0.0,5.0,98,0.00,,,0.22,Wunderground v.1.15,2013-06-25 04:50:00,
2013-06-24 22:00:00,57.9,57.3,29.89,NW,306,1.0,5.0,98,0.00,,,0.23,Wunderground v.1.15,2013-06-25 05:00:00,
2013-06-24 22:05:00,57.9,57.3,29.90,NW,306,1.0,5.0,98,0.00,,,0.23,Wunderground v.1.15,2013-06-25 05:05:00,
2013-06-24 22:10:00,58.0,57.4,29.89,NW,306,0.0,5.0,98,0.00,,,0.23,Wunderground v.1.15,2013-06-25 05:10:00,
2013-06-24 22:20:00,58.1,57.5,29.89,NW,306,1.0,5.0,98,0.00,,,0.23,Wunderground v.1.15,2013-06-25 05:20:00,
2013-06-24 22:25:00,58.1,57.5,29.89,NW,306,1.0,5.0,98,0.00,,,0.23,Wunderground v.1.15,2013-06-25 05:25:00,
2013-06-24 22:30:00,58.2,57.6,29.90,NW,306,0.0,5.0,98,0.00,,,0.23,Wunderground v.1.15,2013-06-25 05:30:00,
2013-06-24 22:35:00,58.2,57.6,29.90,NW,306,0.0,5.0,98,0.00,,,0.23,Wunderground v.1.15,2013-06-25 05:35:00,
2013-06-24 22:40:00,58.2,57.6,29.89,NW,306,0.0,5.0,98,0.00,,,0.23,Wunderground v.1.15,2013-06-25 05:40:00,
2013-06-24 22:45:00,58.2,57.6,29.89,NW,306,0.0,5.0,98,0.00,,,0.23,Wunderground v.1.15,2013-06-25 05:45:00,
2013-06-24 22:55:00,58.3,57.7,29.89,NW,306,0.0,5.0,98,0.00,,,0.23,Wunderground v.1.15,2013-06-25 05:55:00,
2013-06-24 23:00:00,58.4,57.8,29.89,NW,306,0.0,5.0,98,0.00,,,0.23,Wunderground v.1.15,2013-06-25 06:00:00,
2013-06-24 23:05:00,58.4,57.8,29.89,NW,306,0.0,5.0,98,0.00,,,0.23,Wunderground v.1.15,2013-06-25 06:05:00,
2013-06-24 23:10:00,58.4,57.8,29.89,NW,306,0.0,5.0,98,0.00,,,0.23,Wunderground v.1.15,2013-06-25 06:10:00,
2013-06-24 23:15:00,58.4,57.8,29.89,NW,306,0.0,5.0,98,0.00,,,0.24,Wunderground v.1.15,2013-06-25 06:15:00,
2013-06-24 23:25:00,58.5,57.9,29.89,NW,306,0.0,5.0,98,0.00,,,0.24,Wunderground v.1.15,2013-06-25 06:25:00,
2013-06-24 23:30:00,58.5,57.9,29.89,NW,306,0.0,5.0,98,0.00,,,0.24,Wunderground v.1.15,2013-06-25 06:30:00,
2013-06-24 23:35:00,58.5,57.9,29.89,NW,306,0.0,5.0,98,0.04,,,0.25,Wunderground v.1.15,2013-06-25 06:35:00,
2013-06-24 23:40:00,58.5,57.9,29.89,NW,306,0.0,5.0,98,0.04,,,0.25,Wunderground v.1.15,2013-06-25 06:40:00,
2013-06-24 23:45:00,58.5,57.9,29.89,NW,306,0.0,5.0,98,0.05,,,0.26,Wunderground v.1.15,2013-06-25 06:45:00,
2013-06-24 23:55:00,58.6,58.0,29.89,NW,306,0.0,5.0,98,0.05,,,0.26,Wunderground v.1.15,2013-06-25 06:55:00,